This is the latest recevied weather packets stored in our database for station/object KD8UYA. If no packets are shown the sender has not sent any weather packets the latest 10 day(s).
| Time | Temp. | Humidity | Pressure | Rain* | Wind** | Luminosity | Snow |
|---|---|---|---|---|---|---|---|
| 1778101259 | 11.11° C | 60% | 1010.2 hPa | 0 mm | - | - | - |
| 1778100356 | 11.11° C | 58% | 1010.3 hPa | 0 mm | - | - | - |
| 1778099468 | 11.11° C | 57% | 1010.4 hPa | 0 mm | - | - | - |
| 1778098553 | 11.11° C | 58% | 1010.2 hPa | 0 mm | - | - | - |
| 1778097656 | 10.56° C | 57% | 1010.4 hPa | 0 mm | - | - | - |
| 1778096751 | 11.11° C | 57% | 1010.6 hPa | 0 mm | - | - | - |
| 1778095852 | 11.11° C | 56% | 1010.3 hPa | 0 mm | - | - | - |
| 1778094949 | 11.11° C | 57% | 1010.5 hPa | 0 mm | - | - | - |
| 1778094052 | 11.11° C | 60% | 1010.4 hPa | 0 mm | - | - | - |
| 1778093150 | 11.67° C | 57% | 1010.4 hPa | 0 mm | - | - | - |
| 1778092246 | 11.67° C | 65% | 1010.4 hPa | 0 mm | - | - | - |
| 1778091350 | 11.11° C | 67% | 1010.5 hPa | 0 mm | - | - | - |
| 1778090442 | 11.11° C | 58% | 1010 hPa | 0 mm | - | - | - |
| 1778089540 | 11.11° C | 65% | 1010.3 hPa | 0 mm | - | - | - |
| 1778088644 | 11.11° C | 67% | 1010.1 hPa | 0 mm | - | - | - |
| 1778087738 | 11.11° C | 68% | 1010 hPa | 0 mm | - | - | - |
| 1778086843 | 11.11° C | 64% | 1010.2 hPa | 0 mm | - | - | - |
| 1778085946 | 11.11° C | 66% | 1010 hPa | 0 mm | - | - | - |
| 1778085033 | 11.11° C | 70% | 1009.8 hPa | 0 mm | - | - | - |
| 1778084125 | 11.11° C | 69% | 1009.5 hPa | 0 mm | - | - | - |
| 1778083225 | 10.56° C | 74% | 1009.4 hPa | 0 mm | - | - | - |
| 1778082320 | 10° C | 81% | 1009.4 hPa | 0 mm | - | - | - |
| 1778081418 | 10° C | 82% | 1009.2 hPa | 0 mm | - | - | - |
| 1778080516 | 10° C | 83% | 1008.9 hPa | 0 mm | - | - | - |
| 1778079611 | 9.44° C | 87% | 1008.7 hPa | 0 mm | - | - | - |
* Rain latest hour (hover to see other rain measurements)
** Current wind speed in m/s (hover to see current wind gust speed)